{"data":{"norad_id":63487,"intl_designator":"2025-070AD","name":"STARLINK-33754","alt_names":[],"object_type":"PAYLOAD","status":"ACTIVE","operator":null,"country":"US","launch_date":"2025-04-06","launch_site_code":"AFETR","launch_vehicle":null,"mission":null,"orbit_class":"UNKNOWN","rcs_meters":null,"size_class":null,"mass_kg":null,"dimensions":null,"purposes":["comms"],"wikipedia_slug":null,"has_3d_model":false,"image_url":null,"decayed_at":null,"tle_current":{"epoch":"2026-05-25T02:45:58.741344Z","epoch_age_seconds":65401,"freshness":"FRESH","line1":"1 63487U 25070AD  26145.11526321  .00006754  00000+0  25486-3 0  9990","line2":"2 63487  42.9992 188.2679 0001180 289.3944  70.6781 15.27563608 64669","mean_motion":15.27563608,"eccentricity":0.000118,"inclination_deg":42.9992,"raan_deg":188.2679,"arg_perigee_deg":289.3944,"mean_anomaly_deg":70.6781,"bstar":0.00025486,"rev_number":6466,"period_min":94.26776027254,"perigee_km":482.28855427232,"apogee_km":483.90780577481,"semimajor_km":6861.2351800236,"source":"CELESTRAK","updated_at":"2026-05-25T13:38:20.010956Z"}}}